Погода в Тюрнхауте

Бельгия     51°19′03″N   4°57′00″E
темп.,
°C
ветер,
м/с
пор.,
м/с
влажн.,
%
обл.,
%
осадки,
мм/ч
давл.,
гПа
погр.,
м
20 января, чт
чт2001:00+3зсз410905 0.2 1025305
04:00+4зсз41287100 0.2 1026469
07:00+4ссз5117978 0.6 10271033
10:00+4сз4975100 0.2 10291176
13:00+6ссз61163100 0.4 10301632
16:00+5ссз61267100 0.2 10301458
19:00+3ссз5117143 0.3 1032669
22:00+1сз378284 0.0 1033177
21 января, пт
пт2101:00+1сз388391 0.0 1034199
04:00+1зсз368692 0.1 1034112
07:00+1зсз34895 0.1 103480
10:00+2сз388629 0.0 1035250
13:00+6сз487367 0.0 1035871
16:00+6сз41085100 0.1 1034778
19:00+5зсз41090100 0.1 1034525
22:00+4зсз4109448 0.0 1035316
22 января, сб
сб2201:00+3з4109487 0.0 1035305
04:00+4зсз4109090 0.0 1034340
07:00+3з37955 0.0 1035176
10:00+3зюз37955 0.0 1035201
13:00+7з458056 0.0 1035541
16:00+7зсз4677100 0.0 1034742
19:00+6сз4675100 0.0 1034396
22:00+5зсз2484100 0.1 1035170
23 января, вс
вс2301:00+5зсз2286100 0.1 103582
04:00+5зсз2287100 0.0 103451
07:00+5сз1186100 0.0 103411
10:00+6ююв0079100 0.0 103514
13:00+7ююз116891 0.0 1035251
16:00+7зсз11685 0.0 103418
19:00+4ссв11805 0.0 103510
22:00+3в11845 0.0 103510
24 января, пн
пн2401:00+3ююв00872 0.0 103510
04:00+2зюз00890 0.0 103510
07:00+1зсз11900 0.0 103510
10:00+3сз11855 0.0 103650
13:00+6зсз22720 0.0 1036379
16:00+6зсз237868 0.0 1035184
19:00+3з22913 0.0 103622
22:00+3зсз229427 0.0 103739